星链-5459 (STARLINK-5459 )

导读

STARLINK-5459是美国太空探索技术公司Starlink星链星座的一员,星链旨在构建覆盖全球的卫星互联网,该星于2023年2月17日发射入轨。它运行在近地轨道,作为低轨通信卫星,承担着为全球偏远地区等提供高速互联网接入服务的任务,是Starlink星座组网进程中的一颗标准卫星。

Basic Information
目录编号:
55669
目录名称:
STARLINK-5459
国际标识:
2023-021AT
轨道中心:
EARTH
卫星名称:
星链-5459
卫星全名:
星链-5459 (STARLINK-5459 )
卫星状态:
在轨 (已飞行1303 天)
发射日期:
2023-02-17 UTC
国别 :
美国 (US)
星等 :
--
This satellite is enrolled in the Space Conjunction Data Service (SCDS) and the current flight risk assessment level is: No High Risk
Orbit Information
数据来源 国际轨道数据
星历时间: 2026-09-12T11:30:08+0800
11小时前
查看轨道信息
半长轴: 6950.22km
偏心率: 0.0003302
轨道倾角: 70.000°
近地点辐角 271.997°
升交点赤经 54.343°
平近点角 88.081°
近地点: 569.788km
远地点: 574.378km
周期: 96.108分钟
每日圈数: 14.983214
Detailed Information
固有亮度:
5
最大亮度:
2.5
卫星平台:
Starlink v1.5
覆盖范围:
全球
运营商:
太空探索技术公司
运营商所在国:
美国
制造商(研发单位):
太空探索技术公司
制造商所在国:
美国
使用方式:
暂无
Satellite Introduction
星链(Starlink)计划是由太空探索技术公司(SpaceX)提出的一个巨型低轨卫星互联网星座项目,计划在2019年至2024年间在太空搭建由约1.2万颗卫星组成的“星链”网络,其中1584颗将部署在地球上空550千米处的近地轨道,并从2020年开始工作。该卫星仍在工作。
2D Orbit Map
3D Orbit Map
Orbit Altitude Analysis Chart
Orbit Inclination Analysis Chart
Orbit Comprehensive Analysis Chart
View Comprehensive Chart
Conjunction Data List
Event ID Objects TCA Miss Dist (km) Collision Risk Probability Collision Risk Index (CRI) Action
CDM_260913-064501-366605-566921
2026-09-13T
06:45:52+0000
2.417 km
极远距离
1.704232E-6 低风险 0.4
CDM_260914-124303-507105-566921
2026-09-14T
12:43:18+0000
2.556 km
极远距离
1.318071E-6 低风险 0.37
Miss Distance Evolution Trend with All Objects
Collision Probability Evolution Trend with All Objects